GFSCGP_700_spd_096.txt.gz
Wind_Speed
15 19 20 13 12 11 12 16 19 17 13 24 22 24 20 21 27 28 28 29 30 28 28 31 32 31 30 31 35 35 38 36 36 38 37 35 33 32 33 29 30 25 20 32
16 22 16 15 14 13 15 18 21 21 18 23 26 28 26 26 31 31 31 33 33 34 31 28 31 37 36 35 36 36 36 36 34 34 38 37 32 35 35 32 28 29 27 24
18 8 5 12 14 15 17 20 17 19 22 23 26 32 31 30 33 31 29 28 29 33 36 38 35 32 33 34 36 40 38 37 38 34 37 37 37 35 32 32 33 34 36 34
14 9 17 17 20 19 22 23 22 26 28 28 26 20 37 34 32 32 26 23 24 26 31 37 41 43 39 37 35 36 36 34 34 33 36 38 31 31 31 34 36 39 39 36
8 4 4 12 11 17 24 21 23 23 26 31 29 29 19 21 29 39 36 34 28 27 24 27 29 35 44 47 45 45 41 40 37 38 38 36 33 30 27 29 31 36 38 38
24 22 22 18 18 20 24 29 32 30 26 11 26 28 20 24 28 34 33 32 32 28 31 36 32 31 32 35 38 37 47 51 46 42 42 41 38 34 34 33 34 37 38 39
26 29 27 28 33 27 32 34 10 8 7 12 25 22 27 21 29 27 24 31 32 32 31 31 32 35 33 34 34 39 45 51 50 45 45 44 42 41 40 39 40 40 42 41
27 21 25 22 21 21 22 26 15 7 4 9 23 10 20 24 28 36 36 37 39 38 33 31 33 33 37 36 32 33 34 41 38 41 43 46 45 43 37 38 40 41 42 44
6 8 9 15 20 21 17 24 21 19 24 12 17 26 29 29 28 19 13 16 23 25 26 28 27 27 31 35 29 27 32 39 39 36 39 42 40 36 35 39 43 47 47 46
20 14 13 18 20 22 24 17 11 10 5 7 7 12 21 14 14 20 23 18 19 22 28 33 30 30 23 26 28 31 18 23 28 32 39 33 26 25 32 30 31 28 33 36
19 20 21 19 26 28 25 21 19 21 19 6 11 6 7 7 14 20 24 23 28 30 29 26 31 27 22 22 24 22 15 17 20 23 23 21 19 22 22 21 15 15 16 17
18 13 19 28 22 29 36 38 33 17 7 11 11 14 15 14 14 26 30 32 33 30 28 26 29 20 16 12 13 20 27 28 27 28 27 24 21 19 20 20 18 17 15 14
15 11 9 10 7 15 17 21 26 24 19 13 6 9 12 19 36 27 33 32 32 31 31 30 25 37 27 27 23 19 20 21 30 37 39 34 28 28 28 25 25 20 19 15
19 23 24 20 14 10 17 17 18 20 11 18 24 41 43 36 37 37 35 29 31 29 28 31 29 31 39 33 26 31 31 33 30 31 36 37 35 36 36 33 32 28 25 23
20 19 17 19 16 20 25 30 31 30 34 28 41 41 41 38 36 33 28 24 25 25 26 26 25 26 28 32 32 29 30 34 36 38 33 36 44 45 44 43 40 36 32 30
15 15 8 19 28 25 31 22 19 21 23 28 25 29 28 28 26 27 24 24 27 29 27 27 28 28 25 25 32 36 38 37 39 40 45 44 42 45 49 47 46 44 40 37
22 17 12 16 11 10 16 16 13 12 15 20 23 24 23 25 28 28 26 24 33 32 33 32 31 34 36 38 39 38 40 41 44 46 46 47 50 53 50 49 47 49 47 48
31 29 19 13 15 3 3 5 7 15 17 17 18 25 28 27 28 32 34 40 47 41 43 42 40 40 39 39 41 43 46 48 50 50 50 49 48 50 52 56 58 57 51 50
14 20 9 6 6 13 13 13 12 12 20 23 28 17 23 30 39 40 42 44 47 47 48 48 48 49 45 47 47 49 49 49 50 53 54 53 53 53 53 51 51 52 51 53
11 16 20 7 4 4 4 6 10 18 30 14 19 25 38 40 48 47 44 51 53 50 47 47 48 50 53 52 52 56 57 57 57 57 57 58 58 58 58 58 58 58 58 59
2 9 20 21 7 8 10 7 15 10 14 28 38 40 40 46 47 55 56 51 48 50 50 48 49 50 47 44 47 50 54 58 59 60 62 65 67 68 67 65 66 66 67 66
2 2 3 5 4 6 5 19 20 28 35 35 38 40 47 49 50 52 48 49 52 52 46 41 41 39 37 38 40 43 46 44 46 49 52 56 60 67 72 75 74 74 73 74
4 3 5 6 6 16 23 21 28 31 37 40 43 43 44 46 51 47 50 48 42 40 34 35 37 31 28 30 35 41 40 41 42 45 47 49 50 56 62 68 76 78 76 78
9 11 12 16 9 15 24 22 25 33 35 37 36 42 44 47 44 48 49 42 38 35 33 33 33 32 31 29 33 37 35 35 38 41 41 40 40 39 40 43 52 65 72 75
15 20 19 19 18 21 21 27 33 34 37 40 38 42 45 42 48 47 43 42 37 34 32 31 32 33 33 31 32 33 34 35 39 37 38 39 38 39 40 43 44 47 49 53
7 8 12 17 19 24 28 33 35 37 39 39 42 45 40 41 43 38 37 31 33 29 29 30 29 30 32 31 29 26 27 31 33 35 35 39 41 41 48 48 46 48 51 46

GFSCGP_700_spd_102.txt.gz
Wind_Speed
14 15 18 15 15 16 14 14 16 16 16 15 17 19 19 19 19 20 20 19 20 20 20 22 28 28 26 28 34 38 42 42 41 41 39 37 37 36 34 37 36 38 35 34
16 18 16 16 15 14 14 17 18 18 16 15 19 22 21 22 23 23 23 23 23 21 21 22 25 28 31 30 28 35 37 42 45 46 46 43 41 40 37 36 39 39 37 35
19 9 11 16 16 16 18 20 17 17 16 19 22 27 25 24 23 22 24 25 24 23 22 19 18 21 31 34 32 31 36 38 41 43 43 45 44 44 43 41 40 37 38 37
18 19 22 19 15 15 20 14 16 18 19 23 15 23 24 24 24 25 22 21 20 17 20 21 27 27 30 33 35 38 38 38 38 40 42 44 45 45 43 41 40 38 38 41
10 7 5 13 17 16 17 14 15 15 20 23 24 22 24 24 21 18 16 17 17 21 26 28 27 28 28 31 34 35 38 43 41 42 42 44 46 46 45 44 45 43 40 42
18 13 12 10 9 10 10 13 18 22 23 23 27 30 28 21 22 21 18 15 19 25 27 30 30 30 29 29 34 34 36 36 41 48 47 47 46 46 46 47 48 47 43 44
18 20 21 20 17 17 17 17 20 20 18 17 23 21 21 21 21 21 19 16 16 26 19 26 31 31 25 29 33 33 39 39 39 42 46 52 55 52 49 48 49 44 45 47
17 17 13 11 17 21 21 17 20 21 16 21 30 31 23 10 10 14 19 23 27 18 16 30 24 22 21 23 23 26 31 38 42 44 47 49 50 51 54 54 51 52 44 48
12 18 11 14 15 15 18 23 21 26 31 31 33 35 30 26 22 18 16 16 15 25 32 25 17 19 27 32 35 34 33 32 34 41 45 48 48 51 53 55 57 53 51 50
11 16 22 24 22 22 22 22 18 17 9 17 14 15 14 12 12 15 11 11 14 17 26 27 28 32 34 41 41 42 40 35 33 33 37 41 45 46 50 54 59 50 48 48
11 19 25 20 23 21 19 22 23 22 28 11 17 17 4 10 9 11 11 12 16 22 30 34 35 40 46 48 45 46 41 40 34 30 31 35 37 40 40 36 39 41 44 49
15 10 20 24 22 24 24 25 25 15 15 22 24 23 29 14 11 10 15 19 22 28 37 43 35 23 23 27 31 35 36 35 32 32 34 31 29 30 32 29 34 37 38 37
5 10 11 9 10 10 15 14 18 23 25 29 21 20 9 8 12 18 23 24 24 20 17 19 18 17 19 20 26 28 31 33 35 35 36 31 25 24 23 27 31 32 29 27
19 22 20 21 19 18 19 21 20 20 18 27 32 32 26 24 27 26 22 20 20 18 19 20 21 20 23 27 29 28 28 30 31 35 36 26 30 38 31 35 32 34 33 28
21 23 19 22 23 23 24 24 26 30 31 28 26 30 30 27 26 21 20 21 20 23 22 22 25 29 30 30 33 35 35 33 32 32 36 39 42 32 35 30 34 36 39 38
19 18 11 15 17 16 21 24 25 27 29 32 30 31 22 20 19 18 19 22 23 24 28 28 31 38 39 40 39 37 38 36 36 37 34 41 39 38 37 36 35 46 46 45
18 10 8 16 11 14 20 14 13 17 20 21 23 19 18 21 21 20 25 24 30 32 33 31 34 42 45 47 48 46 43 45 44 42 39 37 44 43 40 40 40 39 43 44
29 20 14 14 10 10 5 4 4 8 9 10 15 19 19 21 22 25 28 32 31 34 36 38 39 44 46 48 50 52 53 51 51 51 45 44 45 48 43 43 42 41 41 40
24 25 16 7 11 16 19 10 4 7 12 12 16 15 16 24 32 36 28 30 34 39 40 41 41 45 48 45 44 47 50 53 51 51 54 49 48 53 50 49 48 47 46 45
8 12 23 10 5 4 1 5 10 11 14 7 11 22 31 32 39 41 35 43 47 47 48 51 44 44 47 43 40 41 43 45 48 46 49 54 55 55 58 56 55 54 52 52
2 8 19 18 8 9 8 8 11 6 6 17 25 32 32 37 41 47 47 47 50 46 43 43 45 44 40 39 40 42 41 39 37 39 42 48 56 60 61 60 60 59 58 58
6 5 9 13 8 9 9 6 8 15 27 32 35 35 42 44 46 48 47 47 46 44 44 40 38 40 38 37 37 38 40 32 32 34 37 38 43 53 59 61 62 62 62 63
8 9 4 7 6 10 14 19 19 27 32 31 36 39 42 44 44 49 46 42 41 42 41 39 38 42 40 36 37 39 34 34 36 37 36 34 33 38 45 52 57 60 63 65
10 11 11 12 6 11 15 18 18 24 30 34 36 39 40 41 46 46 42 44 43 42 39 39 41 38 35 30 29 31 25 28 33 35 36 37 38 38 40 43 48 52 55 58
14 15 14 15 16 18 12 13 22 27 30 34 34 36 37 42 45 45 48 46 42 41 40 39 38 32 26 20 22 26 28 28 29 31 28 29 34 39 43 46 47 50 52 53
9 11 10 9 12 17 18 20 24 28 31 32 36 34 34 42 46 46 46 43 41 40 37 33 30 32 28 28 29 28 30 30 32 32 31 30 31 33 35 38 41 43 47 49

GFSCGP_700_spd_105.txt.gz
Wind_Speed
14 15 20 17 18 21 20 18 17 15 14 17 19 21 22 22 23 22 22 22 23 21 19 20 20 22 25 30 35 37 39 36 39 40 41 39 39 38 38 38 39 37 34 35
17 20 19 18 18 18 19 20 22 21 20 21 23 26 24 23 26 25 25 24 24 23 22 20 20 21 20 23 30 32 37 44 45 45 44 44 43 43 43 42 44 43 38 37
21 13 11 16 20 20 21 22 22 21 19 18 19 26 26 26 27 27 27 25 25 25 24 23 22 22 19 20 25 29 33 37 44 45 48 50 48 47 39 38 45 43 39 39
22 19 21 17 16 17 22 19 20 20 21 25 20 23 22 19 20 20 20 22 22 22 22 21 20 21 18 20 24 30 33 38 38 41 46 49 53 53 53 48 38 41 44 40
20 18 15 21 25 22 24 17 18 20 23 24 25 21 24 19 21 22 20 21 19 17 18 17 15 16 20 22 21 27 34 35 39 43 45 47 50 51 50 46 41 39 40 45
20 14 13 13 10 13 15 15 17 20 24 25 28 29 29 27 25 21 16 14 16 14 13 12 14 15 16 18 19 23 27 37 36 39 46 49 49 50 48 43 43 42 37 45
20 23 22 20 19 15 15 16 19 20 20 19 27 30 26 15 15 18 17 17 13 9 9 13 12 13 14 13 15 26 29 37 36 39 40 43 50 52 51 51 51 50 44 47
20 19 15 17 22 22 24 24 23 22 18 20 28 26 25 22 20 17 18 17 14 10 11 12 13 15 14 16 16 20 21 24 27 35 41 43 45 46 50 53 54 54 54 58
13 23 17 19 14 15 20 25 22 21 28 26 31 36 34 31 30 19 20 19 19 16 14 14 16 17 18 18 18 27 29 36 33 32 35 37 44 49 50 52 53 55 58 61
9 19 19 17 19 21 20 19 16 16 6 16 20 21 11 11 9 9 14 15 14 15 16 16 18 18 20 19 18 19 30 43 43 44 41 36 39 40 45 50 54 53 55 57
14 21 26 21 25 29 25 22 26 28 29 10 15 19 15 11 5 11 15 14 16 16 18 21 21 22 24 24 23 23 25 32 38 41 46 41 37 35 36 37 40 46 51 54
12 13 22 27 25 24 25 28 24 13 14 23 23 15 20 11 5 10 14 15 15 20 23 23 25 25 25 23 22 21 22 23 23 27 32 35 34 34 37 37 39 41 43 45
8 10 14 18 17 16 22 21 25 23 25 31 20 21 11 14 17 16 15 20 22 23 22 20 20 19 19 18 21 22 22 22 22 26 28 31 33 32 34 36 38 36 36 37
20 20 22 23 25 17 19 18 19 19 19 24 32 36 31 25 20 21 21 22 20 22 22 23 24 23 23 22 22 24 24 26 31 33 36 36 34 32 30 31 31 34 27 34
16 19 22 25 27 28 30 28 27 30 33 34 35 32 30 29 30 29 22 21 23 21 22 25 26 27 28 28 28 28 31 36 40 39 39 39 38 34 36 36 40 36 29 22
17 24 20 26 22 23 27 27 27 28 28 31 31 33 27 22 18 17 14 20 21 22 26 28 30 31 31 31 34 35 38 41 42 43 44 41 42 37 35 41 49 46 42 19
19 20 14 19 15 16 20 22 22 21 19 21 24 21 14 15 19 20 24 22 26 30 32 31 32 34 36 36 39 42 40 41 46 45 42 46 44 42 38 38 43 41 38 44
29 21 20 17 16 11 14 7 7 8 12 13 15 14 13 14 17 22 26 30 31 31 33 35 38 40 41 44 48 51 56 54 53 49 49 48 48 48 45 41 43 47 42 38
23 21 15 10 15 19 23 13 6 5 11 12 13 12 13 20 29 30 24 26 31 35 40 42 41 42 45 46 52 46 48 47 48 47 45 43 44 48 44 49 47 46 45 44
17 23 27 18 9 8 4 4 7 9 14 6 9 11 23 28 33 32 34 42 48 51 50 41 42 45 43 44 41 43 44 45 44 41 40 38 38 41 45 47 50 50 53 50
8 11 20 21 14 10 10 3 10 8 8 12 18 24 28 31 33 41 46 48 44 42 43 44 46 45 42 41 43 41 43 47 41 41 41 39 38 38 41 48 53 53 54 58
7 7 8 10 8 10 4 6 5 12 17 23 25 27 31 34 36 43 44 47 44 42 42 45 45 45 43 41 41 46 48 45 43 43 42 41 38 38 40 43 47 54 57 57
9 9 8 8 6 11 19 12 17 24 24 25 26 30 32 36 41 43 43 47 48 47 49 47 47 44 44 43 42 43 40 38 39 40 41 40 38 38 39 40 42 47 53 58
7 9 10 11 7 11 10 11 19 24 22 25 27 31 33 40 43 44 48 48 49 49 51 48 45 44 40 38 38 35 34 33 33 35 34 32 33 35 35 40 41 41 46 52
15 15 17 19 17 17 13 15 19 22 24 26 30 32 37 40 41 44 47 49 52 50 47 42 41 38 32 31 31 34 35 36 36 35 34 34 34 32 34 35 42 42 42 44
12 10 16 15 12 13 16 19 19 22 27 28 31 33 33 37 42 44 49 50 46 48 45 42 39 35 33 33 31 31 34 38 38 37 38 37 34 36 37 37 33 36 42 47

GFSCGP_700_spd_108.txt.gz
Wind_Speed
13 13 18 18 19 21 23 25 20 16 14 17 19 18 17 19 21 22 21 21 21 23 20 23 24 24 23 31 37 38 36 33 35 37 36 39 39 41 41 38 37 37 38 35
15 22 17 18 19 20 23 24 23 23 21 21 22 25 24 25 27 27 27 27 25 24 24 24 23 24 25 30 32 31 35 42 41 37 39 36 37 42 41 42 42 41 43 41
20 18 13 20 19 22 23 22 22 24 23 25 24 27 27 26 28 29 30 28 26 27 25 23 23 22 22 22 22 31 29 36 39 44 40 43 43 38 33 32 46 48 47 48
18 18 21 18 17 17 25 21 23 24 24 25 23 24 29 27 27 27 25 23 26 26 27 27 26 28 28 27 26 26 30 32 34 38 41 40 41 47 46 41 45 41 43 53
18 19 20 21 22 23 26 21 23 23 24 24 26 24 26 21 25 27 27 27 24 20 19 22 22 25 25 28 30 29 26 27 33 36 41 45 44 40 39 44 42 43 49 46
20 18 16 15 15 9 12 17 21 23 25 23 28 30 30 28 27 26 26 20 20 22 23 20 24 27 28 30 28 29 28 29 31 40 39 42 48 48 45 43 45 46 47 46
15 20 19 17 18 19 17 16 16 18 19 16 28 29 31 24 11 9 9 7 16 21 22 16 15 23 26 32 30 23 24 29 38 42 41 39 43 47 50 48 47 47 50 52
14 14 12 12 15 17 21 19 19 19 15 20 33 20 24 18 19 19 21 13 16 11 10 12 12 13 12 15 19 21 27 30 26 22 25 31 38 42 45 46 45 50 52 50
11 23 21 15 13 16 16 19 22 25 24 23 27 35 31 23 16 19 16 20 17 12 15 12 7 10 15 16 22 24 32 33 34 32 32 33 34 35 38 46 50 50 51 54
13 20 16 18 19 19 16 16 12 10 5 13 18 19 18 19 12 9 9 15 18 14 11 8 11 14 16 17 23 25 23 27 37 43 42 44 46 46 46 41 43 49 54 55
13 17 21 18 21 24 24 24 19 21 24 7 11 16 11 7 4 3 6 9 14 14 17 18 14 17 21 23 26 25 28 32 30 33 39 45 42 43 37 44 44 44 45 47
10 9 16 23 24 24 24 26 27 16 14 22 25 16 22 12 3 8 11 9 10 13 16 19 20 23 30 37 20 17 23 30 31 35 25 30 37 30 30 31 35 40 40 41
7 7 14 14 14 8 11 13 14 23 16 24 15 22 14 18 22 25 20 23 26 22 22 22 22 21 22 22 25 25 26 27 30 36 36 33 36 36 29 31 36 36 35 40
17 16 19 23 24 26 27 24 24 22 11 12 22 26 22 27 23 23 24 27 22 20 22 23 24 26 26 25 28 29 33 38 40 37 37 37 37 41 40 32 34 39 36 37
11 15 19 23 23 25 30 31 28 29 32 30 37 33 34 31 29 23 21 16 14 16 21 24 24 25 29 32 35 37 38 44 49 47 44 44 43 42 42 40 36 38 37 36
14 19 18 25 23 25 31 29 28 29 30 31 32 31 27 24 24 20 18 20 23 21 21 23 26 31 34 36 39 33 36 41 44 47 49 48 47 44 43 44 41 39 41 40
15 14 14 24 20 17 20 22 24 23 24 27 24 17 13 10 9 11 11 17 21 26 28 30 32 35 38 40 41 46 48 52 52 55 58 61 59 52 48 45 43 43 43 42
23 19 19 22 19 14 19 13 11 14 11 8 7 10 6 7 12 16 20 23 26 31 35 39 45 51 55 57 58 62 62 60 61 61 60 58 57 50 46 48 48 44 45 44
23 18 14 7 15 21 27 16 12 11 6 5 4 9 10 17 24 25 18 26 35 42 47 50 50 53 52 50 50 55 53 49 56 61 58 52 48 48 45 41 46 43 46 46
17 22 27 14 9 6 8 9 11 7 15 10 13 15 16 22 27 27 32 38 40 46 46 47 51 53 48 47 50 52 50 45 46 46 46 42 42 43 42 39 39 41 44 39
12 16 21 19 12 13 15 10 5 7 7 14 15 17 23 25 27 38 39 40 45 44 44 48 53 51 50 51 53 52 51 51 45 42 43 44 45 43 42 41 40 38 44 49
12 9 12 12 10 10 10 7 7 9 14 19 22 21 25 30 34 35 38 43 45 48 50 51 51 51 52 52 50 49 50 49 49 47 47 46 44 42 41 40 39 39 42 48
7 9 5 8 8 14 17 11 12 13 17 21 22 24 26 32 34 39 42 44 47 49 50 54 52 52 52 49 46 46 43 41 43 44 45 42 42 42 40 40 40 41 40 42
9 11 9 11 5 12 16 17 9 11 22 20 23 29 30 35 37 41 43 46 49 49 49 52 52 53 53 48 44 41 38 35 36 36 36 34 32 31 33 37 39 41 41 41
12 14 15 17 18 19 9 7 15 26 23 23 27 28 31 35 37 41 44 48 49 50 52 54 54 54 51 45 40 38 36 35 36 36 36 37 36 36 35 35 35 37 36 37
15 14 18 16 16 22 15 19 20 19 24 28 29 29 31 34 39 42 45 48 50 53 55 55 49 46 36 34 30 27 29 32 35 33 31 34 39 40 41 40 36 38 35 36

GFSCGP_700_spd_111.txt.gz
Wind_Speed
10 9 13 12 14 18 23 27 29 27 20 18 18 23 25 22 22 20 24 27 27 23 27 28 28 26 27 38 40 39 36 38 35 37 35 34 33 33 37 38 41 42 41 38
11 20 11 10 15 22 22 25 28 26 25 20 19 21 18 18 21 26 25 25 27 26 22 23 25 28 28 31 31 33 36 34 32 37 35 36 37 38 38 40 42 45 44 43
16 10 10 15 16 17 21 22 24 24 25 26 26 30 24 22 27 30 38 37 32 25 25 24 27 30 31 32 33 34 35 39 34 33 34 32 35 40 43 44 40 44 45 45
14 12 15 16 17 16 18 21 23 23 21 29 24 24 29 25 27 31 34 30 24 34 38 29 27 29 34 33 35 36 37 37 35 32 35 36 38 40 42 43 46 47 41 47
16 17 15 19 20 22 20 20 21 22 23 27 26 23 20 20 30 27 25 30 32 31 30 36 37 33 32 34 36 36 34 34 38 39 35 38 44 43 45 45 43 45 48 50
20 22 16 10 13 8 9 9 14 18 20 18 27 28 28 35 33 29 24 21 33 32 35 34 34 35 38 40 41 40 39 38 38 43 46 47 43 43 47 48 49 49 47 44
21 22 22 14 16 13 11 13 10 9 11 9 24 26 25 22 12 17 12 10 10 28 29 30 32 33 36 39 40 41 43 41 39 37 36 40 44 44 42 47 48 48 51 50
7 5 6 13 6 8 10 10 5 5 3 6 26 9 9 17 16 18 16 10 11 17 22 24 26 29 31 32 33 34 35 37 36 36 33 30 34 40 39 41 47 49 48 49
9 14 21 14 16 11 11 11 14 10 15 8 11 31 35 20 13 9 2 9 18 21 20 18 19 23 25 23 26 30 35 35 37 39 34 30 32 36 39 38 38 42 49 52
10 11 16 9 14 17 13 17 14 5 1 5 8 17 6 13 10 5 9 7 13 11 16 17 17 14 17 22 26 32 30 32 33 33 37 44 45 42 41 45 48 48 48 50
9 11 16 16 11 14 16 18 19 18 16 5 2 6 4 13 7 7 8 20 16 13 16 14 17 19 21 22 26 29 31 35 40 42 38 42 44 43 36 30 35 42 46 48
5 6 14 22 21 19 19 20 15 12 5 14 15 24 29 26 24 21 17 19 17 27 25 25 23 25 31 36 36 37 38 36 35 38 38 42 44 43 42 34 27 31 34 34
9 4 5 10 5 3 3 10 13 17 19 14 7 8 9 10 28 20 24 25 21 25 23 30 32 29 29 31 30 31 34 38 37 39 45 49 51 52 50 37 36 30 32 35
15 19 20 14 15 21 28 28 21 23 19 18 25 33 31 23 28 31 31 24 21 22 25 28 26 28 27 30 34 37 38 38 42 46 51 53 54 54 51 44 42 41 35 34
15 15 12 16 20 22 26 28 28 26 31 29 39 32 34 31 23 18 21 21 14 20 18 19 22 26 29 34 36 36 40 44 48 52 57 60 57 55 55 57 53 46 46 40
16 16 12 22 20 18 25 30 29 31 31 33 36 31 9 11 16 16 15 6 8 17 20 22 28 29 33 36 42 46 51 55 55 57 58 58 61 62 65 66 63 56 50 47
19 19 12 13 14 20 22 23 14 22 19 17 15 13 19 7 4 6 13 12 21 25 29 34 37 42 44 48 52 53 55 60 64 64 64 64 66 65 65 68 69 65 57 52
21 18 13 15 14 4 5 8 12 12 16 1 3 7 9 3 6 12 11 18 23 29 35 40 43 46 48 52 54 58 60 61 62 68 71 72 70 73 72 65 64 60 53 50
17 20 15 6 9 19 19 9 8 9 11 13 6 8 10 15 22 19 21 25 29 34 39 41 42 47 51 52 55 53 51 50 53 55 53 55 58 57 60 56 55 53 47 46
22 23 25 12 5 4 6 14 14 16 12 12 11 18 20 23 28 30 32 31 33 36 38 43 46 49 52 55 55 54 54 52 53 55 57 52 52 48 47 47 47 44 40 40
13 21 29 24 12 12 14 15 14 5 3 9 15 20 23 26 30 33 32 32 35 38 42 46 50 51 51 52 56 58 57 56 54 50 48 47 49 48 46 45 43 41 39 39
7 6 13 14 10 9 11 11 11 13 14 17 21 23 24 29 30 31 33 36 38 41 44 48 52 53 54 55 57 58 56 52 49 47 44 40 42 46 43 42 39 38 40 40
12 9 7 9 6 14 15 15 13 15 17 19 22 20 29 32 32 33 36 37 40 42 46 51 52 55 53 52 51 53 49 46 42 41 40 37 35 37 40 40 37 38 39 41
15 13 9 9 3 13 16 17 19 18 15 20 25 32 34 32 33 35 37 39 42 45 49 51 57 59 52 48 41 40 40 36 34 34 36 35 34 31 33 32 30 29 33 37
17 17 16 16 16 18 16 19 21 18 20 20 29 31 31 33 34 36 38 41 44 48 50 54 60 54 45 38 36 32 32 29 26 25 27 30 32 33 33 34 33 33 31 30
7 17 19 19 19 18 12 21 21 16 19 28 30 31 30 32 35 37 39 43 47 50 52 56 57 43 35 34 25 22 23 26 26 27 24 22 24 27 31 35 37 38 38 36

GFSCGP_700_spd_114.txt.gz
Wind_Speed
19 15 19 19 21 22 20 17 19 21 19 21 17 18 17 26 36 29 23 21 18 24 25 24 24 31 32 34 37 35 33 32 31 33 34 33 33 35 36 37 37 37 37 39
14 19 13 10 11 14 17 21 24 23 25 21 24 23 17 9 14 22 22 21 18 23 25 26 26 28 35 36 37 36 34 34 36 37 35 36 36 38 40 38 37 36 36 38
15 1 8 10 12 15 21 24 19 20 21 21 22 25 25 19 12 11 21 23 29 34 35 29 30 31 35 33 34 34 34 37 38 38 36 33 34 37 43 44 44 42 39 38
13 7 7 13 19 18 29 17 18 20 20 20 17 9 24 20 23 23 22 26 30 30 31 35 31 32 37 37 37 38 38 40 41 41 39 36 33 32 32 37 45 48 46 46
12 11 11 11 10 8 11 22 17 17 19 17 21 16 18 20 23 29 28 30 33 32 33 35 35 36 38 40 40 41 42 42 42 42 39 42 40 39 41 43 43 44 47 46
20 20 14 10 11 8 8 7 7 9 11 6 16 18 19 27 28 31 30 26 22 28 32 36 37 36 38 37 38 40 42 43 42 40 40 40 39 43 46 49 48 46 45 45
22 22 17 14 16 13 10 7 4 4 4 5 13 17 12 22 11 14 19 21 17 20 23 27 34 35 36 36 37 38 39 37 36 36 36 38 41 44 43 43 46 47 46 44
4 4 10 3 3 8 3 3 3 4 3 4 13 6 2 11 21 22 16 13 17 14 18 23 27 31 33 34 36 37 38 38 38 36 37 40 40 41 40 37 38 42 42 41
6 10 10 7 5 9 7 4 4 3 8 3 7 17 26 30 21 12 14 12 11 12 16 18 19 23 27 30 33 35 36 35 36 39 43 44 46 42 45 42 44 45 47 49
13 8 15 17 15 12 9 10 7 3 2 4 4 12 16 6 4 8 13 12 17 18 15 18 24 28 27 30 33 34 36 38 42 45 48 50 54 54 51 45 43 37 37 41
12 13 12 15 12 12 11 9 5 8 8 4 2 6 9 8 6 8 12 23 23 19 14 14 12 15 20 25 27 29 33 38 43 43 45 48 52 52 45 43 43 37 35 34
10 6 8 18 18 13 16 14 11 5 4 8 11 18 18 15 16 15 13 14 16 23 32 40 35 39 33 35 41 41 41 44 44 43 44 47 47 45 46 48 49 44 40 34
4 4 5 6 3 5 5 3 6 14 11 12 8 9 7 11 21 23 23 21 19 23 22 27 28 27 31 34 36 40 41 41 42 44 47 48 50 52 52 53 53 49 42 41
14 11 15 13 11 13 20 21 19 17 15 18 30 36 37 25 27 33 25 24 23 23 24 24 29 34 34 34 37 40 40 41 43 46 50 54 56 56 58 61 61 60 55 50
9 12 12 12 15 20 23 26 26 27 28 32 34 35 32 33 21 12 15 19 21 18 22 26 27 28 31 34 38 41 44 45 48 52 52 54 57 61 63 64 65 66 65 61
12 10 11 21 20 11 17 23 26 28 30 34 35 36 22 8 11 13 16 16 20 26 28 28 29 30 34 39 42 44 49 53 55 57 60 62 64 64 64 65 67 71 70 68
13 12 10 9 10 16 17 3 9 8 16 17 19 18 18 16 16 17 21 21 27 26 27 30 34 37 39 41 45 49 52 54 56 58 62 67 71 74 74 75 77 74 70 68
22 18 11 11 14 3 1 12 10 11 13 14 13 7 7 12 14 11 22 25 27 31 33 35 38 40 43 44 46 52 54 55 56 57 58 58 59 60 59 59 62 62 62 67
14 16 13 6 8 16 16 8 4 7 13 14 14 14 14 18 21 20 23 25 30 34 33 35 38 41 42 45 50 54 56 58 61 61 60 58 57 58 56 58 57 57 54 55
12 21 25 11 5 6 7 8 12 15 15 12 10 13 16 21 27 29 31 35 30 31 34 38 41 43 45 48 53 57 61 62 62 62 64 64 63 59 56 53 50 49 53 50
8 17 26 28 15 10 18 21 19 11 12 12 12 17 22 26 29 31 34 31 32 34 37 40 42 45 48 51 55 59 62 60 58 57 55 54 54 53 49 47 44 42 46 47
8 7 7 11 10 10 12 11 12 14 15 16 18 21 25 27 31 33 33 33 35 37 39 42 46 48 51 52 56 61 54 49 45 47 47 45 42 41 40 40 38 35 38 40
10 10 10 9 7 10 10 7 15 17 19 23 23 25 27 33 34 35 35 36 37 40 43 46 49 53 52 54 58 50 45 43 41 37 37 36 33 33 32 34 33 33 33 35
19 18 16 16 10 13 17 13 14 19 19 19 25 29 33 35 35 36 37 38 40 43 47 49 52 53 55 55 45 41 44 38 33 33 33 33 30 29 29 29 30 31 30 30
20 18 20 21 19 16 16 20 16 17 23 26 28 29 33 35 36 37 38 40 43 47 49 51 51 54 54 44 37 39 37 31 32 33 36 33 34 29 26 26 28 27 28 29
7 15 19 20 17 19 16 13 20 22 21 23 27 30 32 35 36 38 40 43 47 49 50 50 49 53 41 36 32 30 31 33 36 39 34 31 25 28 22 20 19 23 28 30

GFSCGP_700_spd_117.txt.gz
Wind_Speed
25 24 27 25 24 20 17 16 17 23 16 16 19 18 19 20 24 22 29 23 23 23 20 22 18 23 22 24 28 26 25 25 24 24 27 30 30 30 29 32 35 36 35 35
24 27 23 17 17 20 20 19 20 22 15 14 16 17 18 20 21 12 20 26 23 20 23 19 19 23 26 27 24 30 30 32 31 33 31 31 32 31 31 34 37 40 42 42
24 8 23 15 15 14 16 17 17 16 14 19 20 25 22 23 23 15 12 14 16 18 20 21 25 30 32 31 29 30 29 30 31 33 32 32 31 29 27 28 27 27 32 37
13 17 10 12 13 11 18 15 20 22 21 17 14 9 17 18 19 20 22 20 24 25 27 30 30 33 34 34 33 33 35 35 34 34 34 35 35 35 35 33 30 28 32 36
10 5 7 7 10 4 8 12 16 19 24 18 15 14 15 16 21 22 23 27 30 32 35 39 37 33 34 34 37 38 39 39 38 37 37 38 38 38 37 34 34 35 38 40
15 13 9 8 8 11 7 6 6 8 11 8 15 15 11 15 25 30 27 20 18 19 21 22 27 36 31 34 37 40 41 41 41 40 40 42 43 41 41 40 38 39 40 41
18 20 18 16 14 10 9 8 2 3 3 5 11 12 12 12 19 20 21 23 23 16 22 26 24 24 26 33 39 41 42 42 43 44 43 44 46 44 39 37 38 37 40 42
7 8 15 8 11 7 9 8 8 6 4 3 6 5 3 8 16 23 20 17 14 13 14 15 16 18 25 27 30 33 36 40 41 40 38 37 37 38 38 40 38 39 42 47
5 5 5 4 3 5 5 6 7 1 3 1 5 12 15 19 22 16 11 11 12 12 11 10 12 16 21 23 23 25 27 30 32 34 34 34 36 40 42 42 45 48 49 47
10 6 11 10 8 8 7 6 4 4 4 4 4 6 10 8 8 6 9 12 10 6 10 13 11 11 13 19 26 28 29 30 31 34 36 38 43 47 48 48 49 48 47 39
15 12 10 13 7 6 9 8 4 6 5 5 1 6 9 13 13 10 14 18 20 20 18 17 12 9 14 14 16 20 27 40 46 54 55 51 49 48 49 47 44 40 37 38
11 6 7 10 15 17 16 12 8 6 5 5 3 9 10 10 12 14 13 17 17 18 18 20 22 34 35 33 30 33 39 40 44 46 48 47 48 45 45 46 46 47 47 47
6 4 1 2 3 5 7 8 5 5 10 11 6 6 10 17 21 22 32 34 30 26 28 27 26 26 27 31 33 34 35 38 42 43 44 44 45 47 50 52 53 54 55 53
6 7 8 9 7 11 16 16 17 17 10 11 22 28 29 30 33 34 32 30 32 28 26 25 28 30 31 33 36 39 41 41 41 44 47 49 51 53 55 56 57 58 60 61
9 5 7 9 9 13 17 20 20 24 27 25 31 36 32 27 26 25 24 22 22 22 24 25 28 31 35 39 42 41 42 42 44 48 49 50 52 56 60 62 63 64 65 65
14 9 11 19 17 13 16 17 19 22 25 33 31 31 24 23 18 19 18 18 21 23 26 29 33 36 36 37 39 42 45 49 52 53 53 55 57 60 64 67 70 71 72 72
14 12 10 6 10 13 17 7 7 9 12 12 16 17 19 16 22 24 26 27 24 25 29 32 33 37 41 41 44 44 46 48 50 53 56 59 61 63 64 65 66 68 68 68
18 14 7 7 10 3 4 9 9 11 14 15 16 17 19 19 20 22 24 29 26 28 31 34 39 42 44 43 43 46 49 52 55 58 61 62 66 68 67 66 66 64 63 60
15 21 10 5 7 15 18 17 14 11 14 16 20 20 20 20 22 20 23 26 30 33 36 40 37 38 39 42 45 49 52 55 57 61 62 66 68 69 65 63 61 61 61 60
13 14 18 10 5 5 4 9 12 13 26 25 20 17 18 18 23 22 25 28 33 36 37 38 39 41 44 46 50 54 55 58 62 62 66 66 58 54 50 51 50 48 49 48
12 14 24 25 14 12 16 16 17 11 15 10 14 17 21 26 28 31 30 34 37 37 38 39 41 45 47 50 53 56 59 61 63 66 57 51 45 41 42 46 46 42 41 40
10 9 10 10 8 10 16 12 12 10 15 18 18 21 27 29 31 32 33 38 38 37 38 40 44 47 49 53 56 59 58 63 58 47 47 48 42 38 39 41 38 34 34 34
10 16 7 12 9 11 11 13 15 13 16 18 22 25 28 30 33 35 38 38 38 39 40 43 47 51 52 53 56 57 59 50 43 43 42 37 35 35 40 40 34 31 32 33
20 19 21 23 18 15 16 19 17 16 19 21 25 31 34 37 36 36 38 38 39 41 44 47 51 53 53 52 53 55 42 38 38 37 37 39 40 37 35 34 32 31 30 31
18 18 20 25 25 22 21 17 15 18 20 25 31 31 31 34 34 37 38 39 41 45 48 51 53 53 50 51 46 35 36 39 39 38 32 28 30 28 30 30 29 26 26 29
8 8 12 17 11 15 11 15 13 18 23 24 28 30 32 35 37 37 38 42 45 48 50 51 50 48 47 39 33 33 38 36 26 25 30 30 29 30 29 30 26 25 21 18